Theta_e
323 323 324 323 322 321 321 320 320 320 320 321 322 323 322 321 320 318 318 317 315 315
322 322 322 321 320 320 320 320 320 320 320 321 322 323 322 321 320 320 319 319 316 315
321 321 321 321 320 320 319 319 320 319 319 321 323 324 321 320 319 319 319 320 320 317
321 321 321 320 319 318 318 319 320 321 320 321 321 323 320 321 320 321 319 320 321 320
320 320 319 319 318 319 319 319 320 320 320 323 323 322 321 322 323 321 321 320 321 321
320 319 318 318 318 319 317 317 318 319 323 324 323 322 324 324 322 320 320 320 321 322
320 321 319 319 318 317 319 318 318 325 325 324 324 325 327 326 324 320 321 322 323 323
322 323 320 319 319 318 319 318 325 324 321 320 321 319 323 323 321 320 320 323 323 322
323 322 321 319 318 318 318 322 325 322 319 317 318 304 306 319 323 324 323 321 322 321
323 322 323 321 319 318 320 323 323 317 316 314 314 301 306 310 323 322 323 323 321 321
323 321 323 323 317 317 323 323 319 315 314 314 313 300 306 311 321 323 323 322 321 320
322 319 320 318 317 317 317 317 315 314 313 315 316 299 306 317 323 323 322 322 323 322
321 320 319 318 317 317 317 317 318 315 315 311 316 300 303 315 324 322 321 320 318 308
320 319 319 318 318 318 318 319 317 315 314 316 314 311 302 306 322 323 320 319 317 313
Wind_Speed
9 7 8 8 7 5 4 5 6 5 5 5 5 4 4 3 4 5 5 6 5 4
8 9 8 7 5 4 4 4 6 5 5 4 3 4 4 4 4 5 4 5 5 4
7 7 7 6 6 6 5 5 5 4 2 2 4 5 5 3 4 5 4 3 5 4
7 7 6 6 6 6 5 6 4 4 3 4 5 4 4 5 5 5 4 3 4 6
7 6 6 6 6 6 6 3 4 3 2 5 5 3 4 4 4 5 4 5 5 4
7 6 6 6 6 6 5 3 2 1 1 2 1 0 2 3 3 4 4 4 5 5
6 7 6 6 6 6 4 4 2 4 4 3 2 2 2 1 2 1 1 1 5 6
5 5 6 6 5 5 4 3 5 5 4 4 4 3 3 3 4 3 3 3 5 6
6 6 6 6 5 5 4 4 6 4 4 4 3 6 7 2 4 4 4 4 6 7
6 5 6 6 6 4 5 6 6 5 5 3 2 7 5 2 4 5 6 6 7 6
6 6 5 5 6 6 4 6 5 4 4 3 2 6 4 6 5 6 8 7 8 8
6 6 6 5 6 4 5 4 4 3 4 2 3 8 5 7 5 8 8 7 7 7
6 6 6 7 6 3 3 4 5 4 3 3 3 6 6 7 5 8 7 6 7 10
6 7 6 6 3 5 5 5 5 5 3 3 3 3 5 9 4 5 6 6 6 5
Wind_Direction
110 122 130 137 142 143 148 151 162 161 176 192 186 201 196 216 216 204 212 204 196 195
109 115 128 125 120 128 124 146 158 165 171 182 210 216 212 220 230 221 220 214 201 197
109 109 115 119 136 143 143 149 155 153 155 205 223 228 211 225 244 217 226 203 192 204
113 119 124 134 142 149 143 153 163 174 196 229 243 245 232 224 239 222 219 198 204 213
118 124 130 137 148 147 158 158 168 202 217 262 240 221 232 233 234 232 228 213 200 195
136 138 140 147 144 153 144 157 200 328 113 144 185 178 286 281 190 203 225 202 192 166
162 149 156 156 152 155 153 152 77 99 104 92 23 356 319 216 158 166 45 182 171 147
140 136 143 151 164 134 154 133 131 110 111 75 52 24 7 100 104 102 74 88 111 116
141 150 158 153 154 156 142 129 116 128 114 77 59 3 354 57 89 74 99 90 87 103
148 163 156 168 165 150 158 120 119 136 115 102 60 352 333 84 82 86 93 98 103 96
156 165 168 149 145 115 131 125 133 150 126 113 40 353 99 104 87 79 85 90 105 117
163 164 150 141 134 130 126 128 141 153 134 113 48 7 106 95 95 98 94 94 98 118
162 158 160 160 145 137 132 140 131 126 120 133 89 28 107 99 105 111 104 93 91 95
168 163 159 145 137 134 128 125 129 121 123 112 55 60 123 112 97 110 110 109 112 122